When you browse on this site, cookies collect data to enhance your experience and personalize the content and advertising you see.
Visit our Privacy Policy to learn more. By continuing to use the site, you agree to this use of cookies and data.
  • In Czech Republic
  • List of Countries
  • For 7 days
  • Water Temperature
  • Satellite Maps
  • Weather Map
  • Weather Widgets
  • user-avatar
    Login

    Hourly Weather Kindia

    Today, 20 July, Saturday

    Time Temperature Precipitation Wind Pressure Humidity
    00:00 +23°C° 0 mm 1 mps 708 mmHg 91%
    01:00 +22°C° 0 mm 1 mps 708 mmHg 92%
    02:00 +21°C° 0 mm 2 mps 708 mmHg 92%
    03:00 +21°C° 0 mm 2 mps 708 mmHg 92%
    04:00 +21°C° 0 mm 2 mps 707 mmHg 93%
    05:00 +21°C° 0 mm 2 mps 708 mmHg 92%
    06:00 +21°C° 0 mm 2 mps 708 mmHg 91%
    07:00 +21°C° 0 mm 2 mps 709 mmHg 90%
    08:00 +24°C° 0 mm 2 mps 709 mmHg 86%
    09:00 +25°C° 0 mm 3 mps 710 mmHg 81%
    10:00 +26°C° 0 mm 3 mps 710 mmHg 76%
    11:00 +27°C° 0 mm 3 mps 710 mmHg 73%
    12:00 +28°C° 0 mm 3 mps 709 mmHg 69%
    13:00 +29°C° 0 mm 3 mps 709 mmHg 66%
    14:00 +29°C° 0.1 mm 3 mps 708 mmHg 68%
    15:00 +29°C° 0.1 mm 2 mps 707 mmHg 69%
    16:00 +28°C° 0.1 mm 2 mps 706 mmHg 71%
    17:00 +27°C° 0.5 mm 2 mps 706 mmHg 76%
    18:00 +26°C° 0.5 mm 1 mps 706 mmHg 81%
    19:00 +25°C° 0.5 mm 1 mps 707 mmHg 86%
    20:00 +24°C° 0.2 mm 1 mps 707 mmHg 88%
    21:00 +24°C° 0.2 mm 1 mps 707 mmHg 90%
    22:00 +24°C° 0.2 mm 1 mps 707 mmHg 92%
    23:00 +23°C° 0 mm 2 mps 707 mmHg 93%

    Tomorrow, 21 July, Sunday

    Time Temperature Precipitation Wind Pressure Humidity
    00:00 +23°C° 0 mm 2 mps 708 mmHg 94%
    01:00 +23°C° 0 mm 2 mps 708 mmHg 95%
    02:00 +23°C° 0 mm 2 mps 707 mmHg 95%
    03:00 +22°C° 0 mm 3 mps 707 mmHg 95%
    04:00 +22°C° 0 mm 3 mps 707 mmHg 95%
    05:00 +22°C° 0 mm 3 mps 707 mmHg 94%
    06:00 +22°C° 0 mm 3 mps 708 mmHg 93%
    07:00 +22°C° 0 mm 3 mps 708 mmHg 93%
    08:00 +24°C° 0 mm 3 mps 708 mmHg 87%
    09:00 +26°C° 0 mm 3 mps 709 mmHg 82%
    10:00 +27°C° 0 mm 3 mps 709 mmHg 77%
    11:00 +28°C° 0 mm 3 mps 709 mmHg 73%
    12:00 +29°C° 0 mm 3 mps 708 mmHg 70%
    13:00 +30°C° 0 mm 3 mps 708 mmHg 66%
    14:00 +29°C° 1.4 mm 3 mps 707 mmHg 70%
    15:00 +28°C° 1.4 mm 2 mps 706 mmHg 74%
    16:00 +28°C° 1.4 mm 2 mps 705 mmHg 78%
    17:00 +26°C° 2.2 mm 2 mps 706 mmHg 84%
    18:00 +25°C° 2.2 mm 2 mps 706 mmHg 89%
    19:00 +23°C° 2.2 mm 2 mps 706 mmHg 95%
    20:00 +23°C° 0 mm 1 mps 706 mmHg 94%
    21:00 +22°C° 0 mm 1 mps 707 mmHg 94%
    22:00 +20°C° 0 mm 0 mps 707 mmHg 93%
    23:00 +20°C° 0 mm 0 mps 707 mmHg 93%

    Day after tomorrow, 22 July, Monday

    Time Temperature Precipitation Wind Pressure Humidity
    00:00 +22°C° 0 mm 1 mps 707 mmHg 92%
    01:00 +22°C° 0 mm 1 mps 706 mmHg 92%
    02:00 +22°C° 0 mm 1 mps 706 mmHg 93%
    03:00 +22°C° 0 mm 1 mps 706 mmHg 94%
    04:00 +22°C° 0 mm 1 mps 706 mmHg 95%
    05:00 +21°C° 0.1 mm 2 mps 706 mmHg 94%
    06:00 +23°C° 0.1 mm 2 mps 707 mmHg 94%
    07:00 +22°C° 0.1 mm 3 mps 707 mmHg 94%
    08:00 +24°C° 0 mm 3 mps 708 mmHg 90%
    09:00 +25°C° 0 mm 4 mps 708 mmHg 86%
    10:00 +26°C° 0 mm 4 mps 708 mmHg 82%
    11:00 +27°C° 0 mm 4 mps 708 mmHg 79%
    12:00 +28°C° 0 mm 3 mps 708 mmHg 75%
    13:00 +29°C° 0 mm 3 mps 707 mmHg 71%
    14:00 +28°C° 0 mm 3 mps 707 mmHg 73%
    15:00 +28°C° 0 mm 2 mps 706 mmHg 75%
    16:00 +27°C° 0 mm 2 mps 705 mmHg 77%
    17:00 +26°C° 0.5 mm 2 mps 706 mmHg 81%
    18:00 +26°C° 0.5 mm 2 mps 706 mmHg 85%
    19:00 +25°C° 0.5 mm 1 mps 706 mmHg 88%
    20:00 +24°C° 0.2 mm 2 mps 707 mmHg 89%
    21:00 +24°C° 0.2 mm 2 mps 707 mmHg 90%
    22:00 +24°C° 0.2 mm 3 mps 707 mmHg 91%
    23:00 +22°C° 0 mm 3 mps 707 mmHg 92%

    23 July, Tuesday

    Time Temperature Precipitation Wind Pressure Humidity
    00:00 +23°C° 0 mm 2 mps 707 mmHg 94%
    01:00 +21°C° 0 mm 2 mps 706 mmHg 95%
    02:00 +21°C° 0 mm 2 mps 706 mmHg 95%
    03:00 +21°C° 0 mm 2 mps 706 mmHg 96%
    04:00 +21°C° 0 mm 2 mps 706 mmHg 96%
    05:00 +21°C° 0 mm 3 mps 707 mmHg 95%
    06:00 +21°C° 0 mm 3 mps 707 mmHg 94%
    07:00 +22°C° 0 mm 3 mps 708 mmHg 93%
    08:00 +24°C° 0 mm 3 mps 708 mmHg 88%
    09:00 +25°C° 0 mm 4 mps 709 mmHg 82%
    10:00 +27°C° 0 mm 4 mps 709 mmHg 77%
    11:00 +28°C° 0 mm 3 mps 709 mmHg 73%
    12:00 +29°C° 0 mm 3 mps 708 mmHg 69%
    13:00 +30°C° 0 mm 2 mps 708 mmHg 64%
    14:00 +30°C° 0 mm 2 mps 707 mmHg 64%
    15:00 +30°C° 0 mm 2 mps 706 mmHg 64%
    16:00 +30°C° 0 mm 1 mps 706 mmHg 63%
    17:00 +28°C° 0 mm 1 mps 706 mmHg 70%
    18:00 +27°C° 0 mm 1 mps 706 mmHg 76%
    19:00 +25°C° 0 mm 1 mps 706 mmHg 83%
    20:00 +25°C° 0.6 mm 2 mps 706 mmHg 85%
    21:00 +25°C° 0.6 mm 2 mps 706 mmHg 87%
    22:00 +24°C° 0.6 mm 2 mps 707 mmHg 89%
    23:00 +24°C° 1.7 mm 2 mps 707 mmHg 89%

    24 July, Wednesday

    Time Temperature Precipitation Wind Pressure Humidity
    00:00 +24°C° 1.7 mm 3 mps 706 mmHg 90%
    01:00 +24°C° 1.7 mm 3 mps 706 mmHg 90%
    02:00 +22°C° 0.2 mm 3 mps 706 mmHg 91%
    03:00 +22°C° 0.2 mm 3 mps 706 mmHg 92%
    04:00 +22°C° 0.2 mm 3 mps 706 mmHg 93%
    05:00 +22°C° 0 mm 3 mps 707 mmHg 93%
    06:00 +22°C° 0 mm 3 mps 707 mmHg 93%
    07:00 +22°C° 0 mm 3 mps 707 mmHg 93%
    08:00 +24°C° 0 mm 3 mps 708 mmHg 88%
    09:00 +25°C° 0 mm 3 mps 708 mmHg 83%
    10:00 +26°C° 0 mm 4 mps 709 mmHg 78%
    11:00 +27°C° 0 mm 4 mps 708 mmHg 75%
    12:00 +28°C° 0 mm 4 mps 708 mmHg 71%
    13:00 +29°C° 0 mm 4 mps 707 mmHg 67%
    14:00 +29°C° 0.4 mm 3 mps 707 mmHg 69%
    15:00 +29°C° 0.4 mm 3 mps 706 mmHg 70%
    16:00 +29°C° 0.4 mm 3 mps 706 mmHg 71%
    17:00 +27°C° 0.7 mm 2 mps 706 mmHg 76%
    18:00 +26°C° 0.7 mm 2 mps 706 mmHg 82%
    19:00 +25°C° 0.7 mm 1 mps 706 mmHg 87%
    20:00 +25°C° 1.1 mm 1 mps 706 mmHg 88%
    21:00 +24°C° 1.1 mm 1 mps 707 mmHg 89%
    22:00 +24°C° 1.1 mm 1 mps 707 mmHg 90%
    23:00 +24°C° 0.1 mm 2 mps 707 mmHg 92%

    25 July, Thursday

    Time Temperature Precipitation Wind Pressure Humidity
    00:00 +23°C° 0.1 mm 2 mps 707 mmHg 94%
    01:00 +23°C° 0.1 mm 2 mps 706 mmHg 96%
    02:00 +23°C° 0 mm 2 mps 706 mmHg 96%
    03:00 +21°C° 0 mm 2 mps 706 mmHg 96%
    04:00 +21°C° 0 mm 2 mps 706 mmHg 97%
    05:00 +21°C° 0 mm 2 mps 706 mmHg 96%
    06:00 +23°C° 0 mm 2 mps 707 mmHg 96%
    07:00 +23°C° 0 mm 2 mps 707 mmHg 95%
    08:00 +24°C° 0 mm 2 mps 707 mmHg 90%
    09:00 +26°C° 0 mm 2 mps 708 mmHg 85%
    10:00 +27°C° 0 mm 3 mps 708 mmHg 79%
    11:00 +28°C° 0 mm 3 mps 708 mmHg 74%
    12:00 +29°C° 0 mm 2 mps 707 mmHg 69%
    13:00 +31°C° 0 mm 2 mps 707 mmHg 64%
    14:00 +30°C° 1 mm 2 mps 706 mmHg 68%
    15:00 +30°C° 1 mm 1 mps 706 mmHg 71%
    16:00 +29°C° 1 mm 1 mps 706 mmHg 74%
    17:00 +28°C° 1.8 mm 1 mps 706 mmHg 78%
    18:00 +25°C° 1.8 mm 0 mps 706 mmHg 82%
    19:00 +24°C° 1.8 mm 0 mps 706 mmHg 86%
    20:00 +23°C° 0.6 mm 0 mps 706 mmHg 87%
    21:00 +23°C° 0.6 mm 0 mps 706 mmHg 88%
    22:00 +22°C° 0.6 mm 0 mps 707 mmHg 89%
    23:00 +24°C° 0 mm 1 mps 707 mmHg 90%
    Show more